#timestamp,LO_Frequency,Hit,StdDev 
1538474415.6,286046996.8,N
1538474435.5,286046999.2,N
1538474455.3,286046997.3,N
1538474475.2,286046999.1,N
1538474495.9,286046998.4,N
1538474515.7,286046999.4,N
1538474535.6,286046999.9,N
1538474555.4,286047000.4,N
1538474575.2,286047002.3,N
1538474595.1,286047005.5,N
1538474596.0,286047005.5,N
1538474615.8,286047002.8,N
1538474635.7,286047000.9,N
1538474655.5,286047002.5,N
1538474675.3,286047000.1,N
1538474695.2,286047000.5,N
1538474715.0,286047000.8,N
1538474715.9,286047000.8,N
1538474735.8,286047001.3,N
1538474755.6,286047002.2,N
1538474775.4,286046998.2,N
1538474795.3,286047002.6,N
1538474815.1,286047001.4,N
1538474816.0,286047001.4,N
1538474835.8,286047003.9,N
1538474855.7,286047005.4,N
1538474875.5,286047007.2,Y
1538474895.3,286047005.8,P
1538474915.2,286047006.0,N
1538474935.0,286047004.7,N
1538474935.9,286047004.7,N
1538474955.8,286047005.5,N
1538474975.6,286047000.1,N
1538474995.4,286047001.9,N
1538475015.3,286047002.7,N
1538475035.1,286047001.6,N
1538475055.8,286047005.8,N
1538475075.7,286047003.2,N
1538475095.5,286047004.5,N
1538475115.4,286047002.6,N
1538475135.2,286047005.3,N
1538475155.0,286047004.6,N
1538475155.9,286047004.6,N
1538475175.8,286047006.0,Y
1538475195.6,286047000.6,P
1538475215.4,286047004.1,N
1538475235.3,286047001.3,N
1538475255.1,286046999.9,N
1538475275.9,286047002.2,N
1538475295.7,286047002.8,N
1538475315.5,286047001.4,N
1538475335.4,286047000.5,N
1538475355.2,286047002.3,N
1538475375.0,286047004.4,Y
1538475376.0,286047004.4,P
1538475395.8,286047002.6,N
1538475415.6,286046997.4,N
1538475435.5,286046995.4,N
1538475455.3,286046995.1,N
1538475475.1,286046995.0,N
1538475495.9,286046995.5,N
1538475515.7,286046995.1,N
1538475535.5,286046999.3,N
1538475555.4,286047002.0,N
1538475575.2,286047003.9,N
1538475595.1,286047001.9,N
1538475596.0,286047001.9,N
1538475615.8,286047000.7,N
1538475635.6,286046995.4,N
1538475655.5,286046994.9,N
1538475675.3,286046994.0,N
1538475695.1,286046997.1,N
1538475715.9,286047000.1,N
1538475735.7,286047003.7,N
1538475755.6,286047001.8,N
1538475775.4,286047000.2,N
1538475795.2,286047001.6,N
1538475815.1,286047004.2,N
1538475816.0,286047004.2,N
1538475835.8,286046998.8,N
1538475855.6,286046999.6,N
1538475875.5,286046999.0,N
1538475895.3,286046998.6,N
1538475915.2,286046999.3,N
1538475935.9,286046998.9,N
1538475955.7,286046997.9,N
1538475975.6,286046996.7,N
1538475995.4,286047000.4,N
1538476015.3,286046998.9,N
1538476035.1,286046998.0,N
1538476036.0,286046998.0,N
1538476055.8,286046996.3,N
1538476075.7,286046997.9,N
1538476095.5,286046995.3,N
1538476115.3,286047000.5,N
1538476135.2,286047001.4,N
1538476155.0,286047004.4,N
1538476155.9,286047004.4,N
1538476175.8,286047005.6,N
1538476195.6,286047001.0,N
1538476215.4,286046998.7,N
1538476235.3,286046995.4,N
1538476255.1,286046995.8,N
1538476275.8,286046995.8,N
1538476295.7,286046995.0,N
1538476315.5,286046998.9,N
1538476335.4,286046994.9,N
1538476355.2,286046996.7,N
1538476375.0,286046996.5,N
1538476375.9,286046996.5,N
1538476395.8,286047000.5,N
1538476415.6,286046998.4,N
1538476435.4,286047000.5,N
1538476455.3,286046999.2,N
1538476475.1,286046996.9,N
1538476495.8,286046999.8,N
1538476515.7,286047002.4,N
1538476535.5,286047003.1,N
1538476555.4,286047005.7,N
1538476575.2,286047003.0,N
1538476595.0,286047004.2,N
1538476595.9,286047004.2,N
1538476615.8,286047000.8,N
1538476635.6,286046997.4,N
1538476655.4,286046999.2,N
1538476675.3,286047000.8,N
1538476695.1,286047000.0,N
1538476715.9,286047005.5,N
1538476735.7,286047006.9,N
1538476755.5,286047008.6,N
1538476775.4,286047009.1,N
1538476795.2,286047005.7,N
1538476815.1,286047004.5,N
1538476816.0,286047004.5,N
1538476835.8,286047003.0,N
1538476855.6,286047005.1,N
1538476875.5,286046999.8,N
1538476895.3,286047002.4,N
1538476915.1,286046998.3,N
1538476935.9,286046998.2,N
1538476955.7,286047000.7,N
1538476975.6,286047001.0,N
1538476995.4,286047000.0,N
1538477015.2,286047004.3,N
1538477035.1,286047004.4,N
1538477036.0,286047004.4,N
1538477055.8,286047001.4,N
1538477075.7,286047005.4,N
1538477095.5,286047003.9,N
1538477115.3,286047004.2,N
1538477135.2,286047005.6,N
1538477155.0,286046999.8,N
1538477155.9,286046999.8,N
1538477175.7,286047001.0,N
1538477195.6,286047001.5,N
1538477215.4,286047005.0,N
1538477235.3,286047001.7,N
1538477255.1,286047000.2,N
1538477256.0,286047000.2,N
1538477275.8,286047000.2,N
1538477295.7,286047001.8,N
1538477315.5,286046999.9,N
1538477335.3,286047002.0,N
1538477355.2,286047003.7,N
1538477375.0,286047003.4,N
1538477375.9,286047003.4,N
1538477395.8,286047003.5,N
1538477415.6,286047003.4,N
1538477435.4,286047004.8,N
1538477455.3,286047004.9,N
1538477475.1,286047005.7,N
1538477495.8,286047007.0,Y
1538477515.7,286047001.5,P
1538477535.5,286047001.6,N
1538477555.4,286047000.1,N
1538477575.2,286047000.1,N
1538477595.0,286047001.5,N
1538477595.9,286047001.5,N
1538477615.8,286047000.2,N
1538477635.6,286047003.4,Y
1538477655.5,286047005.6,P
1538477675.3,286047007.2,P
1538477695.1,286047009.0,P
1538477715.9,286047004.9,N
1538477735.7,286047004.3,N
1538477755.5,286046998.5,N
1538477775.4,286046999.0,N
1538477795.2,286047000.7,N
1538477815.1,286047004.2,N
1538477816.0,286047004.2,N
1538477835.8,286047000.4,N
1538477855.6,286046998.9,N
1538477875.5,286046999.9,N
1538477895.3,286046999.5,N
1538477915.2,286046995.6,N
1538477935.9,286046995.9,N
1538477955.7,286046997.1,N
1538477975.6,286046997.7,N
1538477995.4,286047002.8,N
